Simultaneous Nadir Overpasses (SNOs) Predictions

Prediction of SNOs between GOES-16 and NOAA-19 Satellite Orbit:

Table of predicted SNOs for the next 14.0 days since TLE Epoch: 2/22/2019
Index Date Time (GOES-16) GOES-16 Lat,Lon NOAA-19 Lat,Lon Distance(km) Time Diff (sec)
1 02/23/2019 09:23:02 0.00, -75.20 -0.85, -71.44 428.79 80
2 02/24/2019 21:55:53 -0.00, -75.20 -0.93, -79.31 468.75 80
3 02/25/2019 21:44:17 -0.00, -75.21 -0.29, -76.48 144.65 80
4 02/26/2019 21:35:20 -0.01, -75.22 0.36, -73.64 179.63 80
5 03/01/2019 09:56:31 0.01, -75.25 0.79, -78.66 389.17 80
6 03/02/2019 09:44:55 0.01, -75.26 0.15, -75.82 64.74 80
7 03/03/2019 09:30:39 0.01, -75.27 -0.54, -73.00 259.90 80
8 03/05/2019 21:51:52 -0.00, -75.30 -0.61, -78.02 310.27 80
9 03/06/2019 21:42:56 -0.00, -75.32 0.04, -75.19 15.18 80
10 03/07/2019 21:31:19 0.00, -75.34 0.69, -72.35 340.73 80




NCC Satellite Simultaneous Nadir Overpasses (SNOs) Prediction Service
